• In Germany
  • List of Countries
  • For 7 days
  • Water Temperature
  • Satellite Maps
  • Weather Map
  • Weather Widgets
  • user-avatar
    Login

    Hourly Weather Malbun

    Today, 19 January, Friday

    Time Temperature Precipitation Wind Pressure Humidity
    00:00 -3°C° 0.2 mm 4 mps 623 mmHg 89%
    01:00 -2°C° 0 mm 4 mps 623 mmHg 91%
    02:00 -2°C° 0.7 mm 4 mps 623 mmHg 92%
    03:00 -1°C° 0.7 mm 3 mps 623 mmHg 92%
    04:00 -2°C° 0.7 mm 3 mps 623 mmHg 93%
    05:00 -2°C° 1.5 mm 3 mps 623 mmHg 93%
    06:00 -2°C° 1.5 mm 3 mps 623 mmHg 93%
    07:00 -4°C° 0 mm 3 mps 624 mmHg 93%
    08:00 -4°C° 1.2 mm 3 mps 624 mmHg 93%
    09:00 -4°C° 1.2 mm 4 mps 624 mmHg 93%
    10:00 -5°C° 1.2 mm 4 mps 624 mmHg 93%
    11:00 -5°C° 0.4 mm 4 mps 624 mmHg 91%
    12:00 -5°C° 0.4 mm 3 mps 625 mmHg 90%
    13:00 -5°C° 0.4 mm 3 mps 625 mmHg 88%
    14:00 -5°C° 0.4 mm 3 mps 625 mmHg 89%
    15:00 -5°C° 0.4 mm 2 mps 625 mmHg 90%
    16:00 -5°C° 0.4 mm 2 mps 625 mmHg 90%
    17:00 -6°C° 0.3 mm 2 mps 625 mmHg 90%
    18:00 -7°C° 0.3 mm 2 mps 625 mmHg 90%
    19:00 -8°C° 0.3 mm 2 mps 625 mmHg 90%
    20:00 -8°C° 0.5 mm 2 mps 625 mmHg 89%
    21:00 -8°C° 0.5 mm 2 mps 625 mmHg 89%
    22:00 -8°C° 0.5 mm 2 mps 625 mmHg 88%
    23:00 -8°C° 0.8 mm 2 mps 625 mmHg 90%

    Tomorrow, 20 January, Saturday

    Time Temperature Precipitation Wind Pressure Humidity
    00:00 -8°C° 0.8 mm 2 mps 626 mmHg 92%
    01:00 -8°C° 0.8 mm 2 mps 626 mmHg 94%
    02:00 -8°C° 0.4 mm 2 mps 626 mmHg 94%
    03:00 -8°C° 0.4 mm 2 mps 626 mmHg 94%
    04:00 -8°C° 0.4 mm 2 mps 626 mmHg 94%
    05:00 -9°C° 0.1 mm 3 mps 626 mmHg 92%
    06:00 -10°C° 0.1 mm 3 mps 625 mmHg 90%
    07:00 -10°C° 0.1 mm 3 mps 625 mmHg 89%
    08:00 -10°C° 0.1 mm 3 mps 625 mmHg 85%
    09:00 -9°C° 0.1 mm 3 mps 625 mmHg 82%
    10:00 -9°C° 0.1 mm 3 mps 625 mmHg 79%
    11:00 -7°C° 0.1 mm 2 mps 624 mmHg 77%
    12:00 -5°C° 0.1 mm 2 mps 624 mmHg 76%
    13:00 -4°C° 0.1 mm 2 mps 624 mmHg 74%
    14:00 -4°C° 0.1 mm 2 mps 623 mmHg 77%
    15:00 -5°C° 0.1 mm 2 mps 622 mmHg 79%
    16:00 -6°C° 0.1 mm 3 mps 621 mmHg 82%
    17:00 -6°C° 0.9 mm 3 mps 621 mmHg 85%
    18:00 -7°C° 0.9 mm 3 mps 620 mmHg 89%
    19:00 -8°C° 0.9 mm 3 mps 620 mmHg 92%
    20:00 -7°C° 1.3 mm 3 mps 620 mmHg 93%
    21:00 -7°C° 1.3 mm 3 mps 621 mmHg 94%
    22:00 -7°C° 1.3 mm 3 mps 621 mmHg 95%
    23:00 -6°C° 1.1 mm 3 mps 622 mmHg 95%

    Day after tomorrow, 21 January, Sunday

    Time Temperature Precipitation Wind Pressure Humidity
    00:00 -6°C° 1.1 mm 3 mps 622 mmHg 96%
    01:00 -4°C° 1.1 mm 2 mps 622 mmHg 97%
    02:00 -5°C° 1.2 mm 3 mps 623 mmHg 97%
    03:00 -5°C° 1.2 mm 3 mps 623 mmHg 97%
    04:00 -4°C° 1.2 mm 3 mps 623 mmHg 97%
    05:00 -4°C° 1.5 mm 3 mps 623 mmHg 97%
    06:00 -4°C° 1.5 mm 4 mps 624 mmHg 97%
    07:00 -4°C° 1.5 mm 4 mps 624 mmHg 97%
    08:00 -3°C° 1.6 mm 4 mps 624 mmHg 97%
    09:00 -2°C° 1.6 mm 3 mps 625 mmHg 97%
    10:00 -2°C° 1.6 mm 3 mps 625 mmHg 97%
    11:00 -2°C° 2.1 mm 3 mps 625 mmHg 97%
    12:00 -2°C° 2.1 mm 2 mps 625 mmHg 97%
    13:00 -2°C° 2.1 mm 2 mps 625 mmHg 97%
    14:00 -2°C° 2.4 mm 2 mps 625 mmHg 97%
    15:00 -1°C° 2.4 mm 1 mps 626 mmHg 97%
    16:00 -1°C° 2.4 mm 1 mps 626 mmHg 97%
    17:00 -1°C° 2.9 mm 1 mps 626 mmHg 96%
    18:00 -1°C° 2.9 mm 1 mps 626 mmHg 96%
    19:00 -1°C° 2.9 mm 1 mps 626 mmHg 96%
    20:00 0°C° 3.6 mm 1 mps 626 mmHg 96%
    21:00 0°C° 3.6 mm 1 mps 627 mmHg 97%
    22:00 -1°C° 3.6 mm 2 mps 627 mmHg 97%
    23:00 -1°C° 3.9 mm 2 mps 627 mmHg 97%

    22 January, Monday

    Time Temperature Precipitation Wind Pressure Humidity
    00:00 -1°C° 3.9 mm 2 mps 627 mmHg 97%
    01:00 +1°C° 3.9 mm 2 mps 628 mmHg 98%
    02:00 0°C° 3.2 mm 3 mps 628 mmHg 98%
    03:00 0°C° 3.2 mm 3 mps 628 mmHg 97%
    04:00 0°C° 3.2 mm 3 mps 628 mmHg 97%
    05:00 0°C° 2.6 mm 3 mps 628 mmHg 97%
    06:00 0°C° 2.6 mm 3 mps 628 mmHg 97%
    07:00 0°C° 2.6 mm 3 mps 628 mmHg 96%
    08:00 0°C° 2.1 mm 3 mps 628 mmHg 97%
    09:00 0°C° 2.1 mm 3 mps 628 mmHg 97%
    10:00 0°C° 2.1 mm 3 mps 628 mmHg 97%
    11:00 +1°C° 2.3 mm 3 mps 628 mmHg 97%
    12:00 +1°C° 2.3 mm 3 mps 628 mmHg 97%
    13:00 +1°C° 2.3 mm 3 mps 629 mmHg 97%
    14:00 +1°C° 0.5 mm 3 mps 629 mmHg 97%
    15:00 +1°C° 0.5 mm 3 mps 629 mmHg 97%
    16:00 +1°C° 0.5 mm 3 mps 629 mmHg 97%
    17:00 0°C° 0.1 mm 3 mps 629 mmHg 97%
    18:00 0°C° 0.1 mm 3 mps 629 mmHg 96%
    19:00 +1°C° 0.1 mm 2 mps 629 mmHg 96%
    20:00 +1°C° 1 mm 2 mps 629 mmHg 95%
    21:00 0°C° 1 mm 3 mps 629 mmHg 95%
    22:00 0°C° 1 mm 3 mps 630 mmHg 95%
    23:00 -1°C° 0.7 mm 3 mps 630 mmHg 95%

    23 January, Tuesday

    Time Temperature Precipitation Wind Pressure Humidity
    00:00 -1°C° 0.7 mm 3 mps 630 mmHg 95%
    01:00 -1°C° 0.7 mm 3 mps 630 mmHg 95%
    02:00 -1°C° 1.1 mm 3 mps 631 mmHg 95%
    03:00 -1°C° 1.1 mm 3 mps 631 mmHg 95%
    04:00 -1°C° 1.1 mm 3 mps 632 mmHg 96%
    05:00 -1°C° 0.4 mm 2 mps 632 mmHg 96%
    06:00 -1°C° 0.4 mm 2 mps 633 mmHg 96%
    07:00 -1°C° 0.4 mm 2 mps 633 mmHg 96%
    08:00 -1°C° 0.1 mm 2 mps 634 mmHg 97%
    09:00 +1°C° 0.1 mm 2 mps 634 mmHg 97%
    10:00 +1°C° 0.1 mm 2 mps 635 mmHg 97%
    11:00 +1°C° 0.1 mm 2 mps 635 mmHg 97%
    12:00 +1°C° 0.1 mm 2 mps 635 mmHg 97%
    13:00 +2°C° 0.1 mm 2 mps 635 mmHg 97%
    14:00 +1°C° 0 mm 2 mps 635 mmHg 96%
    15:00 +1°C° 0 mm 2 mps 635 mmHg 96%
    16:00 +1°C° 0 mm 2 mps 635 mmHg 95%
    17:00 -1°C° 0 mm 2 mps 635 mmHg 90%
    18:00 -2°C° 0 mm 2 mps 636 mmHg 84%
    19:00 -3°C° 0 mm 2 mps 636 mmHg 79%
    20:00 -3°C° 0 mm 2 mps 636 mmHg 76%
    21:00 -4°C° 0 mm 2 mps 636 mmHg 72%
    22:00 -4°C° 0 mm 2 mps 636 mmHg 69%
    23:00 -4°C° 0 mm 2 mps 636 mmHg 67%

    24 January, Wednesday

    Time Temperature Precipitation Wind Pressure Humidity
    00:00 -4°C° 0 mm 2 mps 637 mmHg 65%
    01:00 -4°C° 0 mm 2 mps 637 mmHg 63%
    02:00 -4°C° 0 mm 2 mps 636 mmHg 63%
    03:00 -4°C° 0 mm 2 mps 636 mmHg 63%
    04:00 -4°C° 0 mm 2 mps 636 mmHg 63%
    05:00 -4°C° 0 mm 2 mps 636 mmHg 63%
    06:00 -4°C° 0 mm 2 mps 636 mmHg 63%
    07:00 -4°C° 0 mm 2 mps 636 mmHg 63%
    08:00 -3°C° 0 mm 2 mps 637 mmHg 66%
    09:00 -2°C° 0 mm 2 mps 637 mmHg 69%
    10:00 +1°C° 0 mm 2 mps 638 mmHg 72%
    11:00 +1°C° 0 mm 2 mps 637 mmHg 79%
    12:00 +2°C° 0 mm 2 mps 637 mmHg 86%
    13:00 +3°C° 0 mm 2 mps 637 mmHg 93%
    14:00 +3°C° 0 mm 2 mps 637 mmHg 91%
    15:00 +2°C° 0 mm 2 mps 637 mmHg 88%
    16:00 +2°C° 0 mm 2 mps 636 mmHg 86%
    17:00 +1°C° 0 mm 2 mps 636 mmHg 81%
    18:00 -1°C° 0 mm 2 mps 636 mmHg 76%
    19:00 -2°C° 0 mm 2 mps 636 mmHg 71%
    20:00 -2°C° 0 mm 2 mps 636 mmHg 70%
    21:00 -4°C° 0 mm 3 mps 636 mmHg 68%
    22:00 -4°C° 0 mm 3 mps 636 mmHg 67%
    23:00 -4°C° 0 mm 3 mps 635 mmHg 67%
    Show more